User: anonymous   Login
Location: Eaton
(41.3139°N, 82.0207°W)
Time: 02:22:31
(UTC+00:00)
Language:

IDEFIX/ARIANE 42P - Orbit

View from above orbital plane
View from above orbital plane
View from above satellite
View from above satellite

Ground track
Ground track

The orbit data is extracted from the following two-line orbital elements,

1 27422U 02021B   21259.46223203  .00000021  00000-0  24789-4 0  9990
2 27422  98.4101 209.2579 0011705 330.2476  29.8040 14.29330702 10314
Epoch (UTC): 16 September 2021 11:05:36
Eccentricity: 0.0011705
inclination: 98.4101°
perigee height: 785 km
apogee height: 802 km
right ascension of ascending node: 209.2579°
argument of perigee: 330.2476°
revolutions per day: 14.29330702
mean anomaly at epoch: 29.8040°
orbit number at epoch: 1031

The dashed part of the orbit path shows where the satellite is in the earth's shadow,  

DLR